Location: St Andrew
(49.4460°N, 2.5750°W)
Time: 01:58:32
(UTC+01:00)

Daily predictions for brighter satellites

Satellite Brightness Start Highest point End
(mag) Time Altitude Azimuth Time Altitude Azimuth Time Altitude Azimuth
Cosmos 1602 3.7 00:03:31 52° SSW 00:04:23 82° W 00:08:20 10° N
Cosmos 1300 Rocket 4.5 00:03:54 23° SW 00:06:20 45° WNW 00:10:38 10° N
Meteor 1-11 Rocket 3.8 00:04:45 31° SSW 00:07:43 87° W 00:13:31 10° NNE
Okean 1 Rocket 3.8 00:06:38 26° SW 00:08:53 48° WNW 00:13:14 10° N
NOSS 3-1 (A) 4.0 00:02:18 10° NW 00:09:43 75° SW 00:14:01 31° SSE
Okean 2 3.4 00:09:45 10° N 00:13:56 75° ENE 00:14:43 56° SSE
Gbstr 26 Del rocket 3.8 00:10:55 10° WNW 00:15:07 34° SW 00:15:07 34° SW
Iridium 4 Rocket 4.0 00:10:00 10° N 00:15:49 70° W 00:18:33 33° SSW
Cosmos 1315 Rocket 2.7 00:15:55 59° SE 00:16:15 63° E 00:20:09 10° NNE
ISS -2.9 00:13:49 10° W 00:17:03 63° N 00:20:18 10° ENE
CZ-4C R/B 3.1 00:17:58 63° ESE 00:18:23 71° ENE 00:22:07 10° N
Meteor 2-15 Rocket 4.4 00:12:26 10° N 00:18:36 88° W 00:21:11 38° S
Cosmos 1503 Rocket 4.1 00:13:48 10° NNW 00:19:00 66° WSW 00:20:41 42° S
Lacrosse 5 rocket 1.7 00:21:16 42° E 00:21:16 42° E 00:23:58 10° ENE
Lacrosse 5 2.0 00:20:14 46° S 00:21:05 52° SE 00:26:03 10° ENE
Genesis I 3.1 00:23:26 67° SSE 00:23:42 71° SE 00:27:44 10° NE
MOS 1-B Rocket 4.4 00:23:46 32° SE 00:26:46 63° ENE 00:33:44 10° N
Meteor 2-14 Rocket 4.4 00:24:39 34° SSW 00:27:29 84° W 00:33:41 10° N
ATLAS 2AS CENTAUR R/B 3.2 00:22:54 10° NW 00:31:07 74° NE 00:36:36 22° SE
Cosmos 44 Rocket 4.1 00:27:19 10° NNW 00:32:23 50° NE 00:35:09 24° ESE
Cosmos 1544 Rocket 3.4 00:31:56 59° S 00:32:44 89° ESE 00:37:06 10° N
Meteor 1-23 Rocket 4.5 00:29:24 10° NNW 00:34:53 58° W 00:36:53 37° SSW
Cosmos 1346 Rocket 2.8 00:32:41 10° N 00:36:36 63° ENE 00:36:57 59° ESE
Helios 1A Rocket 4.1 00:34:00 10° NE 00:37:39 29° E 00:37:46 29° E
CZ-2C R/B 4.1 00:36:41 23° ESE 00:38:51 33° ENE 00:43:11 10° N
Cosmos 2369 Rocket 2.1 00:36:56 42° S 00:38:52 73° ESE 00:44:29 10° NNE
Cosmos 968 Rocket 4.1 00:35:42 10° NNW 00:40:49 50° ENE 00:43:00 31° ESE
USA 234 3.2 00:37:59 10° ENE 00:44:34 87° NNW 00:51:07 10° WSW
deb Kosmos-1763 4.2 00:41:21 10° NNW 00:45:14 64° WSW 00:45:21 64° WSW
Cosmos 2219 4.0 00:40:37 10° NNW 00:46:04 46° NE 00:49:16 23° ESE
CZ-2C R/B 3.4 00:41:21 10° NNE 00:46:10 35° E 00:47:20 32° ESE
GP-B 3.6 00:42:32 10° NNE 00:46:50 45° E 00:47:34 41° ESE
Landsat 5 3.4 00:46:50 62° SSE 00:47:33 88° ENE 00:51:48 10° NNW
Cosmos 2227 Rocket 4.4 00:44:19 10° N 00:48:32 21° NE 00:52:45 10° E
CZ-4B R/B 1.6 00:49:46 60° NW 00:49:46 60° NW 00:52:28 10° NNW
Cosmos 1400 Rocket 4.1 00:48:37 27° WSW 00:50:01 35° WNW 00:53:52 10° N
Cosmos 1536 3.9 00:49:05 31° WSW 00:50:08 37° WNW 00:53:53 10° N
Helios 1B 4.5 00:50:14 62° S 00:50:57 84° WSW 00:55:19 10° NNW
Cosmos 2061 Rocket 4.4 00:53:20 36° SSE 00:55:44 53° E 01:01:57 10° NNE
H-2A R/B 2.6 00:52:44 10° NNE 00:57:19 85° ESE 00:58:11 59° S
Cosmos 1459 Rocket 4.2 00:55:42 38° SSE 00:57:49 55° E 01:03:43 10° NNE
Cosmos 375 4.2 00:53:51 10° NW 00:58:02 69° SW 00:58:03 69° SW
Cosmos 1605 Rocket 4.3 00:59:01 33° SSW 01:02:01 65° WNW 01:08:25 10° N
Cosmos 1818 3.8 01:04:55 47° SSE 01:05:57 54° ESE 01:11:18 10° NE
Cosmos 1802 Rocket 4.3 01:04:46 37° SSE 01:07:01 56° E 01:13:10 10° NNE
Cosmos 1975 2.7 01:06:55 68° SE 01:07:11 71° E 01:11:15 10° NNE
Meteor 1-5 Rocket 4.3 01:06:10 39° SW 01:08:06 64° WNW 01:13:24 10° N
Cosmos 1743 4.2 01:08:04 25° E 01:08:13 26° E 01:11:27 10° NNE
Cosmos 2285 Rocket 4.3 01:05:05 27° SW 01:08:38 64° WNW 01:15:01 10° NNE
Cosmos 44 4.2 01:03:57 10° NNW 01:09:07 49° NE 01:12:28 19° ESE
Cosmos 2297 Rocket 4.4 01:05:41 10° N 01:09:59 21° NE 01:14:14 10° E
Cosmos 1825 Rocket 4.2 01:08:50 10° N 01:13:12 49° ENE 01:14:14 41° ESE
Cosmos 1943 Rocket 2.2 01:14:07 46° SSE 01:15:32 62° ESE 01:21:05 10° NE
Cosmos 2173 Rocket 4.0 01:16:03 41° S 01:18:24 76° E 01:24:47 10° NNE
Cosmos 1992 Rocket 4.0 01:18:10 43° SW 01:19:52 76° WNW 01:25:07 10° NNE
Cosmos 1777 Rocket 4.2 01:17:47 10° NNW 01:23:00 66° ENE 01:25:00 37° SE
Cosmos 1758 Rocket 4.4 01:22:12 10° N 01:26:32 43° ENE 01:27:50 34° ESE
Cosmos 1602 Rocket 4.2 01:25:01 10° NNW 01:29:14 42° W 01:29:49 40° WSW
Cosmos 1689 Rocket 4.2 01:30:43 22° WNW 01:30:43 22° WNW 01:32:41 10° NW
Cosmos 1626 Rocket 4.4 01:29:55 10° NNW 01:34:04 38° W 01:34:40 36° WSW
BREEZE-M DEB (TANK) 3.2 01:22:11 10° W 01:34:09 82° SSW 01:36:48 20° ESE
Gblst 52 Del rocket 4.4 01:27:49 13° WSW 01:34:14 78° SSE 01:40:26 10° ENE
Cosmos 1725 Rocket 4.4 01:33:27 34° SSE 01:35:53 53° E 01:41:52 10° NNE
Cosmos 1666 4.3 01:35:38 23° E 01:36:02 23° E 01:39:05 10° NE
ALOS 2 4.2 01:39:04 21° W 01:39:32 21° W 01:42:55 10° NW
Meteor 1-12 Rocket 4.5 01:39:27 37° SW 01:41:32 60° WNW 01:47:09 10° N
Cosmos 1500 3.1 01:43:22 72° WSW 01:43:33 74° WNW 01:47:22 10° N
Tsikada Rocket 4.1 01:37:25 10° N 01:43:44 74° E 01:46:38 35° SSE
ISS -2.6 01:50:27 10° WNW 01:55:13 28° E 01:56:57 10° E
Lacrosse 5 rocket 2.5 01:56:56 15° W 01:59:42 36° NNW 02:03:07 10° NE
Cosmos 2228 3.9 02:01:27 32° SE 02:02:31 38° E 02:06:31 10° NNE
SeaSat 1 2.4 02:01:51 36° SSE 02:03:55 88° ENE 02:08:53 10° NNW
Lacrosse 5 2.6 01:59:21 11° W 02:04:08 52° NNW 02:09:09 10° NE
NOSS 3-3 (A) 4.3 02:02:34 37° S 02:04:51 56° ESE 02:11:28 10° NE
NOSS 3-3 (C) 4.3 02:02:40 37° S 02:04:56 55° ESE 02:11:33 10° NE
PSLV R/B 4.0 02:06:28 56° SW 02:06:54 60° W 02:11:02 10° NNW
Meteor 1-21 4.2 02:06:12 10° NNW 02:11:47 66° W 02:13:43 41° SSW
Helios 1A Rocket 4.2 02:09:14 10° N 02:12:56 31° WNW 02:14:06 27° W
Cosmos 44 Rocket 4.2 02:09:13 10° NW 02:13:47 33° WSW 02:13:49 33° WSW
Cosmos 972 Rocket 4.2 02:09:20 10° NNW 02:14:14 63° ENE 02:17:07 25° SE
Cosmos 1606 Rocket 3.5 02:15:47 53° SW 02:16:39 71° W 02:21:00 10° N
CZ-2C R/B 3.7 02:17:46 34° WSW 02:18:43 37° W 02:23:13 10° NNW
ATLAS 2AS CENTAUR R/B 3.7 02:14:31 10° NW 02:21:39 35° WSW 02:23:58 30° SW
Cosmos 1898 Rocket 4.3 02:16:48 10° NNW 02:22:02 51° ENE 02:26:41 13° SE
Cosmos 2082 4.0 02:17:22 10° NNW 02:23:00 67° ENE 02:27:38 15° SE
Cosmos 2369 Rocket 3.9 02:18:47 10° W 02:23:28 26° NW 02:28:08 10° NNE
Cosmos 1570 Rocket 4.1 02:23:39 40° S 02:25:34 74° ESE 02:30:55 10° NNE
CZ-2C R/B 3.5 02:21:41 10° N 02:26:29 38° WNW 02:28:51 25° WSW
USA 234 4.1 02:21:01 10° ENE 02:27:18 50° N 02:33:33 10° W
Cosmos 2219 3.9 02:25:04 10° NW 02:30:06 34° WSW 02:31:10 32° SW
Meteor 2-9 Rocket 4.3 02:28:10 35° S 02:30:45 80° E 02:36:33 10° NNE
Cosmos 1707 4.4 02:28:44 10° N 02:32:16 30° ENE 02:34:47 16° SE
PSLV R/B 3.7 02:27:53 10° NNE 02:32:19 73° ESE 02:33:47 42° S
Cosmos 2227 Rocket 2.2 02:27:47 10° NNW 02:33:31 82° ENE 02:37:43 19° SSE
Cosmos 1937 Rocket 4.4 02:28:48 10° NNW 02:33:48 46° ENE 02:38:47 10° SE
Abrixas 4.2 02:36:00 24° ESE 02:36:00 24° ESE 02:37:24 10° E
Meteor 1-15 Rocket 4.3 02:33:24 34° S 02:36:04 80° E 02:42:01 10° NNE
Cosmos 2058 Rocket 3.1 02:35:52 45° SW 02:37:05 68° WNW 02:41:33 10° N
Aureole 2 4.4 02:36:50 59° W 02:37:09 64° WNW 02:40:51 10° NNE
USA 161 4.4 02:35:52 10° E 02:37:29 14° ENE 02:39:04 10° NNE
Meteor 2-5 Rocket 4.3 02:35:03 10° N 02:40:52 60° ENE 02:45:32 16° SSE
Cosmos 2233 Rocket 3.9 02:38:23 33° SSW 02:41:21 85° W 02:47:31 10° N
Cosmos 1743 4.0 02:43:14 26° W 02:44:00 28° WNW 02:47:25 10° N
Cosmos 1340 3.4 02:42:33 10° NNW 02:46:04 37° W 02:46:17 36° WSW
ARIANE 5 R/B 4.5 02:45:26 10° NE 02:49:23 22° E 02:53:20 10° SE
Resurs 1-4 Rocket 4.3 02:45:52 10° NE 02:49:23 18° E 02:52:53 10° SE
Cosmos 44 4.0 02:45:34 10° NW 02:50:14 34° WSW 02:50:50 33° SW
Cosmos 1656 Rocket 4.1 02:47:40 27° WSW 02:50:36 55° NW 02:56:09 10° NNE
Meteor 2-17 Rocket 4.4 02:49:53 31° SSW 02:52:59 76° W 02:59:08 10° N
Cosmos 1726 Rocket 4.4 02:51:43 30° WSW 02:52:59 36° WNW 02:57:00 10° N
Cosmos 2297 Rocket 2.2 02:49:11 10° NNW 02:54:53 86° ENE 03:00:12 12° SSE
Cosmos 2278 4.0 02:53:07 29° S 02:55:54 57° ESE 03:01:28 10° NE
Cosmos 2369 4.2 02:54:37 27° S 02:57:29 52° ESE 03:02:59 10° NE
NPP 3.9 02:52:29 10° NNE 02:57:53 65° ESE 03:00:53 26° S
Cosmos 1842 4.4 02:54:44 10° NNW 02:58:12 29° W 02:58:37 28° WSW
Cosmos 1943 Rocket 3.6 02:55:37 13° W 02:59:42 29° NW 03:04:36 10° NNE
SL-08 R/B 3.2 02:57:20 29° SSE 02:59:47 84° WSW 03:04:28 10° NNW
Cosmos 972 4.4 02:55:07 10° NNW 03:00:01 82° ENE 03:03:47 18° SSE
ATLAS CENTAUR R/B 3.1 02:59:10 22° SSE 03:01:22 31° ESE 03:05:45 10° NE
Okean 3 Rocket 3.8 03:04:04 10° N 03:08:28 67° ENE 03:11:29 20° SSE
BREEZE-M DEB (TANK) 3.1 03:07:21 35° SW 03:08:39 54° SSE 03:12:09 10° E
OPS 8737 4.1 03:08:39 54° SSW 03:09:16 85° SE 03:12:35 10° NE
Cosmos 2208 Rocket 4.4 03:08:37 27° SW 03:11:15 55° WNW 03:16:27 10° NNE
Cosmos 1666 3.9 03:10:39 26° W 03:11:37 30° WNW 03:15:00 10° N
UNK 2.8 03:07:33 10° W 03:14:27 89° SSW 03:17:03 10° E
CBERS-1 4.1 03:10:12 10° NNE 03:15:22 77° ESE 03:18:25 25° S
Cosmos 2298 Rocket 4.1 03:12:20 10° NNW 03:17:32 56° WSW 03:20:41 23° S
NOSS 2-1 (D) 4.0 03:17:40 29° S 03:19:21 46° ESE 03:23:46 10° NE
NOSS 2-1 (C) 4.0 03:19:02 28° S 03:20:44 46° ESE 03:25:10 10° NE
Meteor 1-24 Rocket 3.9 03:18:22 10° N 03:24:03 76° ENE 03:29:56 10° SSE
Cosmos 1891 Rocket 4.5 03:21:30 20° S 03:25:51 79° E 03:32:01 10° NNE
Cosmos 405 Rocket 3.0 03:23:19 10° NNW 03:27:20 55° W 03:29:07 29° SSW
IRAS Rocket 4.3 03:22:00 10° NNE 03:27:40 83° ESE 03:31:30 22° SSW
ISS -3.1 03:28:34 24° W 03:30:05 42° SSW 03:33:12 10° SE
BREEZE-M DEB (TANK) 3.6 03:29:37 23° SW 03:32:19 40° SSE 03:35:00 10° E
Cosmos 1378 3.7 03:30:34 10° N 03:34:20 58° ENE 03:37:55 11° SSE
Cosmos 1076 Rocket 3.9 03:31:15 10° N 03:35:35 62° ENE 03:39:51 10° SSE
NOSS 2-1 (E) 3.8 03:33:40 26° SSW 03:35:47 59° SE 03:40:30 10° NE
SL-24 R/B 4.3 03:31:05 10° SSE 03:35:55 82° ENE 03:40:23 10° NNW
Cosmos 990 Rocket 3.9 03:32:59 10° NNW 03:38:15 77° WSW 03:43:30 10° SSE
Cosmos 1766 4.0 03:35:56 16° SSE 03:38:55 49° E 03:42:45 10° NNE
Lacrosse 5 rocket 3.3 03:36:34 10° NW 03:39:39 24° N 03:42:43 10° ENE
Cosmos 2034 Rocket 4.0 03:35:47 19° S 03:40:29 85° W 03:46:43 10° N
SeaSat 1 4.1 03:41:37 16° WSW 03:42:03 16° WSW 03:45:03 10° WNW
Cosmos 1656 3.9 03:39:10 19° SSW 03:43:15 67° ESE 03:48:52 10° NNE
Cosmos 468 Rocket 3.9 03:40:57 22° SSW 03:44:22 85° WNW 03:49:33 10° NNE
NOSS 3-4 (A) 3.8 03:38:24 10° NW 03:45:08 56° WSW 03:52:16 10° SSE
NOSS 3-4 (C) 3.9 03:38:29 10° NW 03:45:16 57° WSW 03:52:27 10° SSE
Nadezhda 4 Rocket 4.0 03:39:08 10° N 03:45:20 85° W 03:51:35 10° S
BREEZE-M DEB (TANK) 4.1 03:39:07 10° WNW 03:46:09 23° WSW 03:47:18 21° SW
SAR-Lupe-3 4.4 03:44:37 20° S 03:46:56 69° WSW 03:50:26 10° NNW
ERS-2 2.1 03:43:19 10° NNE 03:47:04 79° WNW 03:49:16 23° SSW
Lacrosse 5 3.5 03:43:16 10° WNW 03:47:57 35° N 03:52:37 10° ENE
SL-16 R/B 2.5 03:42:45 10° SSE 03:48:57 87° WSW 03:55:10 10° NNW
UNKNOWN OBJECT B 4.4 03:45:46 10° NNE 03:49:18 31° E 03:52:44 10° SSE
CZ-2D R/B 2.8 03:44:23 10° NNE 03:49:45 53° E 03:55:02 10° S
IRS-1C 4.2 03:45:03 10° N 03:50:23 69° WNW 03:54:18 19° SSW
Okean O Rocket 3.9 03:49:01 10° NE 03:52:23 21° E 03:55:45 10° SE
In-Cosmos 22 4.3 03:56:41 10° N 04:02:00 75° ENE 04:07:17 10° SSE
Cosmos 1441 Rocket 3.2 03:58:31 10° NNW 04:02:30 75° W 04:06:30 10° S
Cosmos 1758 4.3 03:59:33 10° SSE 04:03:22 44° E 04:07:13 10° NNE
EO 1 Del DPAF 3.2 04:01:12 10° SSE 04:05:05 82° WSW 04:09:00 10° NNW
Cosmos 1408 Rocket 3.5 04:02:19 10° NNW 04:06:42 69° W 04:11:04 10° S
Cosmos-2242 3.7 04:02:44 10° S 04:06:56 53° E 04:11:07 10° NNE
USA 161 2.4 04:06:34 23° SW 04:07:38 30° W 04:10:10 10° NNW
Cosmos 1953 3.1 04:04:10 10° S 04:08:06 52° E 04:12:05 10° NNE
Cosmos 1707 4.0 04:04:52 10° NNW 04:08:07 25° W 04:10:01 17° SW
Cosmos 1697 Rocket 2.8 04:03:22 15° SSW 04:08:10 77° ESE 04:13:50 10° NNE
USA 234 4.3 04:03:27 10° E 04:09:42 49° N 04:15:56 10° WNW
Cosmos 1805 4.1 04:06:15 10° SSE 04:10:00 47° E 04:13:48 10° NNE
Cosmos 1766 Rocket 3.5 04:05:40 10° NNW 04:10:03 69° W 04:14:27 10° S
Abrixas 3.2 04:08:01 15° W 04:10:09 32° SSW 04:12:56 10° SE
Cosmos 1125 Rocket 3.5 04:05:05 10° NNW 04:10:21 89° ENE 04:15:33 10° SSE
Geosat 4.3 04:08:56 10° NNE 04:13:54 60° NW 04:18:07 14° SW
Cosmos 1937 Rocket 4.4 04:11:09 10° NW 04:15:33 29° W 04:19:28 12° SSW
Cosmos 841 Rocket 3.6 04:11:10 13° SSW 04:15:56 81° ESE 04:21:15 10° NNE
Cosmos 2026 Rocket 4.3 04:09:56 10° N 04:16:20 73° ENE 04:22:36 10° SSE
Cosmos 1980 Rocket 2.7 04:11:03 10° S 04:16:33 57° ESE 04:22:07 10° NE
Cosmos 2227 Rocket 3.6 04:13:06 10° WNW 04:16:51 18° W 04:19:28 14° SW
GEOS 3 Rocket 3.8 04:12:00 10° SSE 04:17:03 49° SW 04:22:05 10° NW
Cosmos 1763 Rocket 3.5 04:17:25 13° SSW 04:22:07 82° WNW 04:27:19 10° NNE
Cosmos 1634 Rocket 4.1 04:20:44 10° S 04:26:59 86° E 04:33:21 10° N
Cosmos 2195 Rocket 4.5 04:21:15 10° N 04:27:26 86° W 04:33:32 10° S
Cosmos 2322 Rocket 3.8 04:23:37 10° SSE 04:28:27 30° ESE 04:33:17 10° NE
ARIANE 5 R/B 2.7 04:23:51 10° N 04:28:53 60° WNW 04:33:56 10° SSW
Resurs 1-4 Rocket 2.1 04:24:33 10° NNE 04:29:50 75° WNW 04:35:04 10° SSW
Milstar 3 Cent rocket 4.3 04:28:53 10° S 04:30:06 11° SSE 04:31:24 10° SSE
Cosmos 1544 4.0 04:27:11 10° S 04:30:43 48° E 04:34:15 10° NNE
ADEOS 4.3 04:26:02 10° N 04:30:53 40° WNW 04:35:31 11° SW
Cosmos 1092 Rocket 4.3 04:29:03 10° NNW 04:35:05 51° W 04:41:09 10° SSW
Cosmos 1842 Rocket 4.3 04:31:38 10° S 04:36:00 55° E 04:40:25 10° NNE
Cosmos 2297 Rocket 3.7 04:34:37 10° WNW 04:38:10 17° W 04:41:43 10° SW
RESURS DK-1 2.3 04:34:32 10° NNW 04:38:43 83° WSW 04:42:50 10° SSE
Cosmos 1437 2.9 04:36:28 10° NNW 04:39:45 56° W 04:43:01 10° S
MTI 4.2 04:37:03 10° S 04:40:12 45° W 04:43:24 10° NNW
ATLAS CENTAUR R/B 2.3 04:35:30 11° WSW 04:40:20 54° NW 04:45:12 10° NE
CZ-2D R/B 3.6 04:36:49 10° NNE 04:41:10 85° ESE 04:45:35 10° SSW
Cosmos 1674 2.9 04:39:28 10° N 04:43:17 76° E 04:47:02 10° SSE
Cosmos 371 Rocket 4.5 04:44:49 10° S 04:49:19 41° ESE 04:53:49 10° NE
Cosmos 540 Rocket 3.9 04:44:54 10° S 04:50:01 65° ESE 04:55:10 10° NNE
Cosmos 1461 3.0 04:46:19 10° NW 04:50:24 51° WSW 04:54:17 10° SSE
IRS-1D 4.2 04:51:59 10° N 04:56:33 38° WNW 05:01:07 10° SW
Thor Agena Rocket 3.5 04:51:36 10° SSE 04:56:39 87° WSW 05:01:45 10° NNW
NOSS 7 (H) 4.4 04:53:28 10° SW 04:56:40 78° NW 05:00:19 10° NE
Cosmos 2360 4.3 04:53:48 10° SSW 04:59:30 84° ESE 05:05:16 10° NNE
Cosmos 1428 Rocket 4.5 04:55:18 10° N 05:01:29 82° W 05:07:35 10° S
SL-16 R/B 3.0 04:56:04 10° S 05:01:31 50° ESE 05:06:59 10° NE
